When you browse on this site, cookies collect data to enhance your experience and personalize the content and advertising you see.
Visit our Privacy Policy to learn more. By continuing to use the site, you agree to this use of cookies and data.
  • In Sweden
  • List of Countries
  • For 7 days
  • Water Temperature
  • Weather Map
  • Weather Widgets
  • user-avatar
    Login

    Hourly Weather Salvador

    Today, 10 April, Friday

    Time Temperature Precipitation Wind Pressure Humidity
    00:00 +28°C° 0 mm 4 mps 754 mmHg 81%
    01:00 +28°C° 0 mm 3 mps 754 mmHg 82%
    02:00 +28°C° 0 mm 3 mps 754 mmHg 83%
    03:00 +27°C° 0 mm 2 mps 754 mmHg 83%
    04:00 +27°C° 0.1 mm 2 mps 754 mmHg 84%
    05:00 +27°C° 0.1 mm 2 mps 755 mmHg 85%
    06:00 +27°C° 0.1 mm 1 mps 755 mmHg 86%
    07:00 +27°C° 1.5 mm 1 mps 755 mmHg 85%
    08:00 +28°C° 1.5 mm 2 mps 756 mmHg 83%
    09:00 +29°C° 1.5 mm 2 mps 756 mmHg 81%
    10:00 +29°C° 0.2 mm 2 mps 756 mmHg 79%
    11:00 +30°C° 0.2 mm 2 mps 755 mmHg 77%
    12:00 +30°C° 0.2 mm 2 mps 755 mmHg 75%
    13:00 +30°C° 0.2 mm 2 mps 754 mmHg 73%
    14:00 +30°C° 0.2 mm 3 mps 754 mmHg 71%
    15:00 +30°C° 0.2 mm 3 mps 753 mmHg 69%
    16:00 +30°C° 0 mm 3 mps 753 mmHg 72%
    17:00 +29°C° 0 mm 4 mps 753 mmHg 75%
    18:00 +29°C° 0 mm 4 mps 753 mmHg 78%
    19:00 +29°C° 0 mm 4 mps 754 mmHg 78%
    20:00 +29°C° 0 mm 4 mps 755 mmHg 78%
    21:00 +29°C° 0 mm 4 mps 755 mmHg 78%
    22:00 +28°C° 0 mm 4 mps 755 mmHg 79%
    23:00 +28°C° 0 mm 4 mps 755 mmHg 80%

    Tomorrow, 11 April, Saturday

    Time Temperature Precipitation Wind Pressure Humidity
    00:00 +28°C° 0 mm 3 mps 755 mmHg 81%
    01:00 +28°C° 0 mm 3 mps 755 mmHg 81%
    02:00 +28°C° 0 mm 3 mps 754 mmHg 81%
    03:00 +28°C° 0 mm 2 mps 754 mmHg 81%
    04:00 +27°C° 0.3 mm 2 mps 754 mmHg 83%
    05:00 +27°C° 0.3 mm 2 mps 755 mmHg 85%
    06:00 +27°C° 0.3 mm 2 mps 755 mmHg 86%
    07:00 +27°C° 0.8 mm 2 mps 755 mmHg 85%
    08:00 +28°C° 0.8 mm 2 mps 755 mmHg 83%
    09:00 +29°C° 0.8 mm 1 mps 756 mmHg 82%
    10:00 +29°C° 1.6 mm 2 mps 755 mmHg 81%
    11:00 +30°C° 1.6 mm 2 mps 755 mmHg 80%
    12:00 +30°C° 1.6 mm 2 mps 754 mmHg 79%
    13:00 +30°C° 1.8 mm 3 mps 754 mmHg 81%
    14:00 +30°C° 1.8 mm 4 mps 754 mmHg 82%
    15:00 +29°C° 1.8 mm 5 mps 753 mmHg 84%
    16:00 +29°C° 0.6 mm 5 mps 753 mmHg 85%
    17:00 +29°C° 0.6 mm 5 mps 754 mmHg 85%
    18:00 +28°C° 0.6 mm 5 mps 754 mmHg 86%
    19:00 +28°C° 1.3 mm 5 mps 754 mmHg 87%
    20:00 +28°C° 1.3 mm 5 mps 755 mmHg 87%
    21:00 +28°C° 1.3 mm 4 mps 756 mmHg 88%
    22:00 +27°C° 2.8 mm 4 mps 755 mmHg 89%
    23:00 +27°C° 2.8 mm 3 mps 755 mmHg 91%

    Day after tomorrow, 12 April, Sunday

    Time Temperature Precipitation Wind Pressure Humidity
    00:00 +26°C° 2.8 mm 2 mps 755 mmHg 92%
    01:00 +26°C° 3.4 mm 2 mps 755 mmHg 93%
    02:00 +26°C° 3.4 mm 2 mps 755 mmHg 94%
    03:00 +26°C° 3.4 mm 1 mps 755 mmHg 95%
    04:00 +26°C° 3.7 mm 2 mps 755 mmHg 95%
    05:00 +25°C° 3.7 mm 3 mps 755 mmHg 95%
    06:00 +25°C° 3.7 mm 4 mps 755 mmHg 95%
    07:00 +25°C° 2.2 mm 3 mps 756 mmHg 95%
    08:00 +25°C° 2.2 mm 3 mps 756 mmHg 95%
    09:00 +25°C° 2.2 mm 3 mps 757 mmHg 95%
    10:00 +26°C° 0.4 mm 3 mps 756 mmHg 94%
    11:00 +26°C° 0.4 mm 4 mps 756 mmHg 93%
    12:00 +26°C° 0.4 mm 4 mps 755 mmHg 92%
    13:00 +27°C° 0 mm 3 mps 755 mmHg 88%
    14:00 +27°C° 0 mm 2 mps 754 mmHg 85%
    15:00 +28°C° 0 mm 2 mps 754 mmHg 81%
    16:00 +28°C° 0 mm 1 mps 754 mmHg 82%
    17:00 +27°C° 0 mm 1 mps 754 mmHg 82%
    18:00 +25°C° 0 mm 0 mps 754 mmHg 82%
    19:00 +27°C° 0 mm 1 mps 754 mmHg 82%
    20:00 +27°C° 0 mm 1 mps 755 mmHg 81%
    21:00 +27°C° 0 mm 1 mps 755 mmHg 81%
    22:00 +27°C° 0.4 mm 1 mps 755 mmHg 82%
    23:00 +27°C° 0.4 mm 1 mps 755 mmHg 82%

    13 April, Monday

    Time Temperature Precipitation Wind Pressure Humidity
    00:00 +27°C° 0.4 mm 1 mps 755 mmHg 83%
    01:00 +26°C° 0.1 mm 1 mps 755 mmHg 85%
    02:00 +26°C° 0.1 mm 1 mps 755 mmHg 86%
    03:00 +26°C° 0.1 mm 1 mps 754 mmHg 88%
    04:00 +26°C° 0.4 mm 1 mps 754 mmHg 88%
    05:00 +26°C° 0.4 mm 2 mps 755 mmHg 89%
    06:00 +26°C° 0.4 mm 2 mps 755 mmHg 90%
    07:00 +27°C° 1.1 mm 3 mps 755 mmHg 86%
    08:00 +28°C° 1.1 mm 3 mps 756 mmHg 83%
    09:00 +29°C° 1.1 mm 4 mps 756 mmHg 79%
    10:00 +29°C° 0.7 mm 4 mps 756 mmHg 78%
    11:00 +29°C° 0.7 mm 4 mps 755 mmHg 77%
    12:00 +30°C° 0.7 mm 4 mps 754 mmHg 76%
    13:00 +30°C° 0.7 mm 4 mps 754 mmHg 76%
    14:00 +30°C° 0.7 mm 5 mps 753 mmHg 76%
    15:00 +30°C° 0.7 mm 5 mps 753 mmHg 75%
    16:00 +29°C° 1.6 mm 4 mps 753 mmHg 79%
    17:00 +28°C° 1.6 mm 4 mps 753 mmHg 83%
    18:00 +27°C° 1.6 mm 4 mps 754 mmHg 87%
    19:00 +27°C° 1.4 mm 4 mps 754 mmHg 87%
    20:00 +27°C° 1.4 mm 4 mps 754 mmHg 86%
    21:00 +27°C° 1.4 mm 4 mps 755 mmHg 86%
    22:00 +27°C° 0.5 mm 4 mps 755 mmHg 86%
    23:00 +27°C° 0.5 mm 4 mps 754 mmHg 85%

    14 April, Tuesday

    Time Temperature Precipitation Wind Pressure Humidity
    00:00 +28°C° 0.5 mm 3 mps 754 mmHg 85%
    01:00 +27°C° 0 mm 3 mps 754 mmHg 84%
    02:00 +27°C° 0 mm 3 mps 754 mmHg 83%
    03:00 +27°C° 0 mm 2 mps 753 mmHg 82%
    04:00 +27°C° 0.1 mm 2 mps 754 mmHg 84%
    05:00 +27°C° 0.1 mm 2 mps 754 mmHg 86%
    06:00 +26°C° 0.1 mm 2 mps 754 mmHg 88%
    07:00 +27°C° 0.5 mm 2 mps 755 mmHg 85%
    08:00 +28°C° 0.5 mm 2 mps 755 mmHg 83%
    09:00 +29°C° 0.5 mm 2 mps 755 mmHg 80%
    10:00 +29°C° 0.3 mm 2 mps 755 mmHg 77%
    11:00 +30°C° 0.3 mm 2 mps 754 mmHg 75%
    12:00 +30°C° 0.3 mm 2 mps 754 mmHg 72%
    13:00 +30°C° 0.1 mm 3 mps 753 mmHg 72%
    14:00 +30°C° 0.1 mm 4 mps 753 mmHg 71%
    15:00 +30°C° 0.1 mm 4 mps 752 mmHg 71%
    16:00 +30°C° 0 mm 4 mps 752 mmHg 74%
    17:00 +29°C° 0 mm 4 mps 753 mmHg 77%
    18:00 +28°C° 0 mm 4 mps 753 mmHg 79%
    19:00 +28°C° 0 mm 3 mps 753 mmHg 80%
    20:00 +28°C° 0 mm 3 mps 754 mmHg 81%
    21:00 +27°C° 0 mm 3 mps 754 mmHg 82%
    22:00 +27°C° 0 mm 3 mps 754 mmHg 83%
    23:00 +27°C° 0 mm 3 mps 754 mmHg 83%

    15 April, Wednesday

    Time Temperature Precipitation Wind Pressure Humidity
    00:00 +27°C° 0 mm 3 mps 754 mmHg 84%
    01:00 +27°C° 0 mm 2 mps 754 mmHg 83%
    02:00 +26°C° 0 mm 2 mps 754 mmHg 83%
    03:00 +26°C° 0 mm 2 mps 754 mmHg 82%
    04:00 +26°C° 0.2 mm 1 mps 754 mmHg 84%
    05:00 +26°C° 0.2 mm 1 mps 754 mmHg 86%
    06:00 +26°C° 0.2 mm 1 mps 755 mmHg 87%
    07:00 +27°C° 0.2 mm 1 mps 755 mmHg 81%
    08:00 +28°C° 0.2 mm 1 mps 756 mmHg 76%
    09:00 +30°C° 0.2 mm 1 mps 756 mmHg 70%
    10:00 +30°C° 0.1 mm 2 mps 756 mmHg 69%
    11:00 +31°C° 0.1 mm 3 mps 755 mmHg 67%
    12:00 +31°C° 0.1 mm 3 mps 755 mmHg 66%
    13:00 +32°C° 0.1 mm 4 mps 754 mmHg 68%
    14:00 +30°C° 0.1 mm 4 mps 754 mmHg 69%
    15:00 +30°C° 0.1 mm 4 mps 753 mmHg 71%
    16:00 +30°C° 0.1 mm 4 mps 754 mmHg 74%
    17:00 +29°C° 0.1 mm 4 mps 754 mmHg 76%
    18:00 +29°C° 0.1 mm 4 mps 754 mmHg 79%
    19:00 +28°C° 0.2 mm 4 mps 755 mmHg 80%
    20:00 +28°C° 0.2 mm 4 mps 755 mmHg 82%
    21:00 +28°C° 0.2 mm 4 mps 756 mmHg 83%
    22:00 +28°C° 1 mm 3 mps 756 mmHg 84%
    23:00 +27°C° 1 mm 3 mps 756 mmHg 85%
    Show more